Regional Weather Roundup
Issued by NWS

Home | Current Version | Previous Version | Text Only | Print | Product List | Glossary On
Versions: 1 2 3 4 5 6 7 8 9 10 11 12 13 14 15 16 17 18 19 20 21 22 23 24 25 26 27 28 29 30 31 32 33 34 35 36 37 38 39 40 41 42 43 44 45 46 47 48 49 50
000
ASUS43 KFSD 252310
RWRSD

WEATHER ROUNDUP FOR SOUTH DAKOTA
NATIONAL WEATHER SERVICE SIOUX FALLS SD
600 PM CDT WED APR 25 2018

NOTE: "FAIR" INDICATES FEW OR NO CLOUDS BELOW 12,000 FEET WITH NO
SIGNIFICANT WEATHER AND/OR OBSTRUCTIONS TO VISIBILITY.


SDZ001>005-009-010-012>017-260000-
NORTHWEST AND NORTH CENTRAL SOUTH DAKOTA

CITY           SKY/WX    TMP DP  RH WIND       PRES   REMARKS
BUFFALO          N/A     71  24  17 NW20G28   29.82F
FAITH            N/A     68  24  19 S14       29.87F
MOBRIDGE       PTSUNNY   68  32  26 S14       29.86F
$$

SDZ012>016-024>037-041>051-057-063-072>074-260000-
SOUTHWEST AND SOUTH CENTRAL SOUTH DAKOTA

CITY           SKY/WX    TMP DP  RH WIND       PRES   REMARKS
RAPID CTY ARPT PTSUNNY   72  21  14 NW12      29.87F
PIERRE         PTSUNNY   68  26  20 S15       29.93F
CUSTER         PTSUNNY   61  17  18 SW10G17   29.99F
ELLSWORTH AFB  PTSUNNY   72  20  14 NW8       29.87F
PHILIP         MOSUNNY   71  22  15 S13       29.90F
PINE RIDGE     SUNNY     70  19  14 SW12      29.96F
SPEARFISH      FAIR      70  23  17 W10G18    29.91F
WINNER         FAIR      64  26  23 S14       29.99F
$$

SDZ004>011-016>023-039-040-260000-
NORTHEAST SOUTH DAKOTA

CITY           SKY/WX    TMP DP  RH WIND       PRES   REMARKS
ABERDEEN       PTSUNNY   64  30  27 SW17G24   29.95F
WATERTOWN      SUNNY     57  32  38 S13       29.99F
BROOKINGS      SUNNY     57  32  38 SW9       30.03F
SISSETON         N/A     61  32  33 SW14      29.96F
$$

SDZ017-020-022-023-036>040-048>070-260000-
SOUTHEAST SOUTH DAKOTA

CITY           SKY/WX    TMP DP  RH WIND       PRES   REMARKS
SIOUX FALLS    MOSUNNY   60  26  27 SW6       30.04F
HURON          MOSUNNY   61  32  33 S12G22    29.99F
CHAMBERLAIN    PTSUNNY   64  32  31 S14       29.99F
MITCHELL       MOSUNNY   62  34  35 S10       30.03F
YANKTON        SUNNY     59  28  30 SW6       30.06F
$$

ABBREVIATIONS USED IN REMARKS
   TC - TEMPERATURE IN CELSIUS
  WCI - WIND CHILL INDEX
   HX - HEAT INDEX
  VSB - VISIBILITY





USA.gov is the U.S. government's official web portal to all federal, state and local government web resources and services.